125P/Spacewatch (2013)

Japanese version
Home page
Updated on July 18, 2024

---------------------------------------------------------------------

* Profile

* Pictures

* Orbital Elements

Epoch 2013 Jan. 28.0 TT = JDT 2456320.5
T 2013 Feb. 16.98231 TT                                 Kobayashi
q   1.5254645            (2000.0)            P               Q
n   0.17815237     Peri.   87.22745     -0.48686475     +0.86996862
a   3.1280593      Node   153.18917     -0.85438234     -0.45568793
e   0.5123288      Incl.    9.98580     -0.18164124     -0.18842271
P   5.53
From 462 observations 1991 Sept. 8-2013 Sept. 14, mean residual 0".6.
     Nongravitational parameters A1 = +0.01, A2 = +0.0071.

* Finding Charts

* Magnitudes Graph

        m1 = 9.5 + 5 log d + 20.0 log r(t - 100)  [   ,-30]  (             - 2013 Jan. 17)
        m1 = 7.4 + 5 log d + 40   log r(t - 10)   [-30, 40]  (2013 Jan. 17 - 2013 Mar. 28)
        m1 = 9.0 + 5 log d + 20.0 log r(t + 100)  [ 40,   ]  (2013 Mar. 28 -             )

---------------------------------------------------------------------

The orbital elements are published on M.P.E.C. 2015-M77.
The charts are made with StellaNavigator Ver.8 (AstroArts).
The magnitudes graphs are made with Comet for Windows.

---------------------------------------------------------------------

Copyright(C) Seiichi Yoshida (comet@aerith.net). All rights reserved.